FW1492 Weather Reports


Display with metric or nautical units.
time (UTC)temp
F
wind
direction
speed
MPH
gust
MPH
rain 1hr
in
rain 24hr
in
rain mn
in
humidity
%
barometer
mb
20260505121504 61 217 1.0 4.0 0.00 0.00 0.00 73 1011.0
20260505120005 61 210 1.0 4.0 0.00 0.00 0.00 73 1011.2
20260505114502 61 220 1.0 3.0 0.00 0.00 0.00 73 1011.3
20260505113058 59 218 1.0 3.0 0.00 0.00 0.00 74 1011.3
20260505111557 58 201 1.0 2.0 0.00 0.00 0.00 77 1011.1
20260505110106 59 210 0.0 1.0 0.00 0.00 0.00 75 1011.0
20260505101549 57 217 4.0 7.0 0.00 0.00 0.00 73 1011.4
20260505100048 57 287 3.0 8.0 0.00 0.00 0.00 72 1011.2
20260505094546 57 279 2.0 5.0 0.00 0.00 0.00 72 1011.2
20260505093044 57 255 2.0 8.0 0.00 0.00 0.00 71 1011.1
20260505091543 57 232 3.0 6.0 0.00 0.00 0.00 71 1010.9
20260505090044 57 238 2.0 4.0 0.00 0.00 0.00 71 1010.4
20260505084546 56 222 2.0 4.0 0.00 0.00 0.00 71 1010.5
20260505083039 56 245 2.0 5.0 0.00 0.00 0.00 70 1010.7
20260505081538 57 223 1.0 5.0 0.00 0.00 0.00 69 1010.6
20260505080037 57 250 3.0 6.0 0.00 0.00 0.00 68 1010.6
20260505074538 57 271 2.0 6.0 0.00 0.00 0.00 68 1010.7
20260505073042 57 229 1.0 5.0 0.00 0.00 0.00 68 1010.6
20260505071534 57 238 2.0 7.0 0.00 0.00 0.00 67 1010.5
20260505070041 57 210 3.0 5.0 0.00 0.00 0.00 67 1010.5
20260505064535 57 226 2.0 5.0 0.00 0.00 0.00 66 1010.6
20260505063032 57 235 3.0 6.0 0.00 0.00 0.00 66 1010.6
20260505061538 57 230 2.0 6.0 0.00 0.00 0.00 66 1010.7
20260505060031 57 227 3.0 6.0 0.00 0.00 0.00 65 1010.5
20260505054535 57 214 2.0 7.0 0.00 0.00 0.00 65 1010.6
20260505053029 56 236 3.0 5.0 0.00 0.00 0.00 65 1010.6
20260505051525 56 224 2.0 4.0 0.00 0.00 0.00 64 1010.7
20260505041530 57 210 3.0 6.0 0.00 0.00 0.00 61 1010.9
20260505040014 57 178 2.0 5.0 0.00 0.00 0.00 60 1010.9
20260505034521 58 195 3.0 5.0 0.00 0.00 0.00 59 1011.1
20260505033013 58 207 2.0 5.0 0.00 0.00 0.00 58 1011.1
20260505031523 58 212 3.0 5.0 0.00 0.00 0.00 58 1011.3
20260505030011 58 198 2.0 5.0 0.00 0.00 0.00 57 1011.6
20260505024511 59 204 3.0 5.0 0.00 0.00 0.00 56 1011.5
20260505023011 59 199 2.0 4.0 0.00 0.00 0.00 56 1011.5
20260505021510 60 206 1.0 3.0 0.00 0.00 0.00 55 1011.5
20260505020009 60 210 2.0 3.0 0.00 0.00 0.00 55 1011.7
20260505014507 60 204 2.0 4.0 0.00 0.00 0.00 55 1011.7
20260505013009 60 215 2.0 4.0 0.00 0.00 0.00 55 1011.6
20260505011506 60 226 1.0 4.0 0.00 0.00 0.00 54 1011.3
20260505010006 61 179 1.0 4.0 0.00 0.00 0.00 54 1011.2
20260505004506 61 229 2.0 4.0 0.00 0.00 0.00 53 1011.1
20260505003005 61 209 1.0 3.0 0.00 0.00 0.00 53 1011.0
20260505001504 62 214 1.0 3.0 0.00 0.00 0.00 52 1010.9
20260505000006 63 200 2.0 6.0 0.00 0.00 0.00 50 1010.5
20260504234502 64 235 1.0 4.0 0.00 0.00 0.00 49 1010.5
20260504233002 65 205 2.0 4.0 0.00 0.00 0.00 46 1010.1
20260504231501 65 261 3.0 7.0 0.00 0.00 0.00 45 1010.0
20260504230100 66 233 3.0 7.0 0.00 0.00 0.00 44 1009.9
20260504224609 66 213 1.0 6.0 0.00 0.00 0.00 44 1010.0
20260504223134 66 234 2.0 5.0 0.00 0.00 0.00 43 1009.9
20260504221556 67 251 2.0 6.0 0.00 0.00 0.00 42 1010.1
20260504220056 67 233 2.0 8.0 0.00 0.00 0.00 43 1010.4
20260504214554 68 306 2.0 8.0 0.00 0.00 0.00 42 1010.3
20260504213100 68 250 3.0 6.0 0.00 0.00 0.00 42 1010.6
20260504211550 68 260 2.0 6.0 0.00 0.00 0.00 42 1010.6
20260504210051 68 281 3.0 7.0 0.00 0.00 0.00 41 1010.6
20260504204549 68 319 3.0 10.0 0.00 0.00 0.00 41 1010.5
20260504203102 68 265 1.0 9.0 0.00 0.00 0.00 42 1010.4
20260504201544 68 234 5.0 9.0 0.00 0.00 0.00 40 1010.6
20260504200044 67 265 4.0 10.0 0.00 0.00 0.00 42 1010.8
20260504194540 67 243 2.0 7.0 0.00 0.00 0.00 41 1010.9
20260504193038 67 288 4.0 11.0 0.00 0.00 0.00 40 1011.0
20260504191536 67 262 5.0 10.0 0.00 0.00 0.00 40 1011.1
20260504190036 66 203 1.0 9.0 0.00 0.00 0.00 42 1011.4
20260504184530 65 269 3.0 11.0 0.00 0.00 0.00 43 1011.4
20260504183030 66 271 4.0 10.0 0.00 0.00 0.00 41 1011.5
20260504181531 65 287 3.0 8.0 0.00 0.00 0.00 41 1011.9
20260504180027 65 316 4.0 8.0 0.00 0.00 0.00 42 1011.8
20260504174524 64 220 4.0 12.0 0.00 0.00 0.00 42 1012.2
20260504173020 63 252 4.0 9.0 0.00 0.00 0.00 41 1012.2
20260504171517 63 291 5.0 10.0 0.00 0.00 0.00 42 1012.7
20260504150107 58 295 5.0 11.0 0.00 0.00 0.00 44 1014.3